Time,TemperatureF,DewpointF,PressureIn,WindDirection,WindDirectionDegrees,WindSpeedMPH,WindSpeedGustMPH,Humidity,HourlyPrecipIn,Conditions,Clouds,dailyrainin,SoftwareType,DateUTC
2013-06-11 00:00:00,77.5,73.0,30.73,SSE,164,2.0,-999.0,86,-99.99,,,0.00,weatherlink.com 1.10,2013-06-11 05:00:00,
2013-06-11 00:15:00,77.2,73.0,30.73,SSE,163,2.0,-999.0,87,-99.99,,,0.00,weatherlink.com 1.10,2013-06-11 05:15:00,
2013-06-11 00:30:00,76.7,73.0,30.73,SSE,163,2.0,-999.0,88,-99.99,,,0.00,weatherlink.com 1.10,2013-06-11 05:30:00,
2013-06-11 00:45:00,76.6,73.0,30.73,SSE,159,0.0,-999.0,88,-99.99,,,0.00,weatherlink.com 1.10,2013-06-11 05:45:00,
2013-06-11 01:00:00,76.3,73.0,30.73,SSE,159,0.0,-999.0,88,-99.99,,,0.00,weatherlink.com 1.10,2013-06-11 06:00:00,
2013-06-11 01:15:00,75.9,72.0,30.73,SSE,159,0.0,-999.0,88,-99.99,,,0.00,weatherlink.com 1.10,2013-06-11 06:15:00,
2013-06-11 01:30:00,75.7,72.0,30.73,SSE,159,0.0,-999.0,89,-99.99,,,0.00,weatherlink.com 1.10,2013-06-11 06:30:00,
2013-06-11 01:45:00,75.5,73.0,30.73,SSE,161,2.0,-999.0,90,-99.99,,,0.00,weatherlink.com 1.10,2013-06-11 06:45:00,
2013-06-11 02:00:00,75.5,73.0,30.73,SSE,161,1.0,-999.0,90,-99.99,,,0.00,weatherlink.com 1.10,2013-06-11 07:00:00,
2013-06-11 02:15:00,75.4,72.0,30.74,SSE,157,3.0,-999.0,90,-99.99,,,0.00,weatherlink.com 1.10,2013-06-11 07:15:00,
2013-06-11 02:30:00,75.3,73.0,30.73,South,182,5.0,-999.0,91,-99.99,,,0.00,weatherlink.com 1.10,2013-06-11 07:30:00,
2013-06-11 02:45:00,75.1,72.0,30.74,SSE,166,3.0,-999.0,91,-99.99,,,0.00,weatherlink.com 1.10,2013-06-11 07:45:00,
2013-06-11 03:00:00,75.0,73.0,30.73,South,170,1.0,-999.0,92,-99.99,,,0.00,weatherlink.com 1.10,2013-06-11 08:00:00,
2013-06-11 03:15:00,74.8,72.0,30.73,South,170,0.0,-999.0,92,-99.99,,,0.00,weatherlink.com 1.10,2013-06-11 08:15:00,
2013-06-11 03:30:00,74.5,72.0,30.73,South,170,0.0,-999.0,92,-99.99,,,0.00,weatherlink.com 1.10,2013-06-11 08:30:00,
2013-06-11 03:45:00,74.6,72.0,30.73,South,170,0.0,-999.0,92,-99.99,,,0.00,weatherlink.com 1.10,2013-06-11 08:45:00,
2013-06-11 04:00:00,74.7,72.0,30.73,South,171,1.0,-999.0,92,-99.99,,,0.00,weatherlink.com 1.10,2013-06-11 09:00:00,
2013-06-11 04:15:00,74.7,73.0,30.74,South,169,1.0,-999.0,93,-99.99,,,0.00,weatherlink.com 1.10,2013-06-11 09:15:00,
2013-06-11 04:30:00,74.7,73.0,30.74,SSE,165,2.0,-999.0,93,-99.99,,,0.00,weatherlink.com 1.10,2013-06-11 09:30:00,
2013-06-11 04:45:00,74.5,72.0,30.75,SSE,165,2.0,-999.0,93,-99.99,,,0.00,weatherlink.com 1.10,2013-06-11 09:45:00,
2013-06-11 05:00:00,74.4,72.0,30.75,SSE,168,3.0,-999.0,93,-99.99,,,0.00,weatherlink.com 1.10,2013-06-11 10:00:00,
2013-06-11 05:15:00,74.4,72.0,30.76,South,169,2.0,-999.0,93,-99.99,,,0.00,weatherlink.com 1.10,2013-06-11 10:15:00,
2013-06-11 05:30:00,74.4,73.0,30.75,SSE,168,2.0,-999.0,94,-99.99,,,0.00,weatherlink.com 1.10,2013-06-11 10:30:00,
2013-06-11 05:45:00,74.4,73.0,30.76,SSE,167,0.0,-999.0,94,-99.99,,,0.00,weatherlink.com 1.10,2013-06-11 10:45:00,
2013-06-11 06:00:00,74.3,73.0,30.76,SSE,167,0.0,-999.0,94,-99.99,,,0.00,weatherlink.com 1.10,2013-06-11 11:00:00,
2013-06-11 06:15:00,74.3,73.0,30.77,SSE,163,0.0,-999.0,94,-99.99,,,0.00,weatherlink.com 1.10,2013-06-11 11:15:00,
2013-06-11 06:30:00,74.4,73.0,30.77,East,84,0.0,-999.0,94,-99.99,,,0.00,weatherlink.com 1.10,2013-06-11 11:30:00,
2013-06-11 06:45:00,74.4,73.0,30.77,East,84,0.0,-999.0,94,-99.99,,,0.00,weatherlink.com 1.10,2013-06-11 11:45:00,
2013-06-11 07:00:00,74.7,73.0,30.77,ESE,115,0.0,-999.0,94,-99.99,,,0.00,weatherlink.com 1.10,2013-06-11 12:00:00,
2013-06-11 07:15:00,75.3,74.0,30.77,ESE,114,0.0,-999.0,94,-99.99,,,0.00,weatherlink.com 1.10,2013-06-11 12:15:00,
2013-06-11 07:30:00,76.2,74.0,30.78,ESE,109,3.0,-999.0,94,-99.99,,,0.00,weatherlink.com 1.10,2013-06-11 12:30:00,
2013-06-11 07:45:00,77.0,75.0,30.78,East,82,1.0,-999.0,93,-99.99,,,0.00,weatherlink.com 1.10,2013-06-11 12:45:00,
2013-06-11 08:00:00,77.6,75.0,30.78,ENE,69,2.0,-999.0,92,-99.99,,,0.00,weatherlink.com 1.10,2013-06-11 13:00:00,
2013-06-11 08:15:00,78.7,76.0,30.79,ENE,64,2.0,-999.0,92,-99.99,,,0.00,weatherlink.com 1.10,2013-06-11 13:15:00,
2013-06-11 08:30:00,79.7,77.0,30.79,SE,142,1.0,-999.0,91,-99.99,,,0.00,weatherlink.com 1.10,2013-06-11 13:30:00,
2013-06-11 08:45:00,80.7,77.0,30.79,East,92,1.0,-999.0,89,-99.99,,,0.00,weatherlink.com 1.10,2013-06-11 13:45:00,
2013-06-11 09:00:00,80.7,77.0,30.80,SSE,168,1.0,-999.0,87,-99.99,,,0.00,weatherlink.com 1.10,2013-06-11 14:00:00,
2013-06-11 09:15:00,81.0,77.0,30.79,SSW,205,2.0,-999.0,87,-99.99,,,0.00,weatherlink.com 1.10,2013-06-11 14:15:00,
2013-06-11 09:30:00,81.5,77.0,30.79,South,171,3.0,-999.0,86,-99.99,,,0.00,weatherlink.com 1.10,2013-06-11 14:30:00,
2013-06-11 09:45:00,81.4,76.0,30.79,ESE,116,0.0,-999.0,84,-99.99,,,0.00,weatherlink.com 1.10,2013-06-11 14:45:00,
2013-06-11 10:00:00,82.0,77.0,30.79,South,175,0.0,-999.0,84,-99.99,,,0.00,weatherlink.com 1.10,2013-06-11 15:00:00,
2013-06-11 10:15:00,82.4,77.0,30.79,South,178,4.0,-999.0,83,-99.99,,,0.00,weatherlink.com 1.10,2013-06-11 15:15:00,
2013-06-11 10:30:00,83.0,77.0,30.79,SSW,200,3.0,-999.0,81,-99.99,,,0.00,weatherlink.com 1.10,2013-06-11 15:30:00,
2013-06-11 10:45:00,82.2,76.0,30.80,South,180,3.0,-999.0,82,-99.99,,,0.00,weatherlink.com 1.10,2013-06-11 15:45:00,
2013-06-11 11:01:00,83.3,77.0,30.79,SE,129,2.0,-999.0,82,-99.99,,,0.00,weatherlink.com 1.10,2013-06-11 16:01:00,
2013-06-11 11:16:00,84.2,77.0,30.80,South,181,6.0,-999.0,80,-99.99,,,0.00,weatherlink.com 1.10,2013-06-11 16:16:00,
2013-06-11 11:31:00,83.8,76.0,30.80,SSW,207,2.0,-999.0,78,-99.99,,,0.00,weatherlink.com 1.10,2013-06-11 16:31:00,
2013-06-11 11:46:00,85.3,78.0,30.80,South,182,4.0,-999.0,78,-99.99,,,0.00,weatherlink.com 1.10,2013-06-11 16:46:00,
2013-06-11 12:01:00,86.1,77.0,30.80,SSE,153,2.0,-999.0,74,-99.99,,,0.00,weatherlink.com 1.10,2013-06-11 17:01:00,
2013-06-11 12:16:00,86.8,77.0,30.79,South,182,4.0,-999.0,73,-99.99,,,0.00,weatherlink.com 1.10,2013-06-11 17:16:00,
2013-06-11 12:30:00,86.7,77.0,30.79,South,188,3.0,-999.0,72,-99.99,,,0.00,weatherlink.com 1.10,2013-06-11 17:30:00,
2013-06-11 12:45:00,87.6,77.0,30.78,South,178,3.0,-999.0,71,-99.99,,,0.00,weatherlink.com 1.10,2013-06-11 17:45:00,
2013-06-11 13:00:00,87.9,77.0,30.77,South,171,5.0,-999.0,70,-99.99,,,0.00,weatherlink.com 1.10,2013-06-11 18:00:00,
2013-06-11 13:15:00,88.8,78.0,30.77,SSE,154,9.0,-999.0,70,-99.99,,,0.00,weatherlink.com 1.10,2013-06-11 18:15:00,
2013-06-11 13:31:00,87.3,76.0,30.78,South,188,5.0,-999.0,68,-99.99,,,0.00,weatherlink.com 1.10,2013-06-11 18:31:00,
2013-06-11 14:01:00,74.5,71.0,30.79,SSE,165,2.0,-999.0,87,-99.99,,,0.37,weatherlink.com 1.10,2013-06-11 19:01:00,
2013-06-11 14:16:00,74.1,71.0,30.78,SSE,165,0.0,-999.0,89,-99.99,,,0.47,weatherlink.com 1.10,2013-06-11 19:16:00,
2013-06-11 14:31:00,74.7,72.0,30.78,SSE,165,0.0,-999.0,91,-99.99,,,0.47,weatherlink.com 1.10,2013-06-11 19:31:00,
2013-06-11 14:46:00,75.5,73.0,30.79,East,81,0.0,-999.0,92,-99.99,,,0.47,weatherlink.com 1.10,2013-06-11 19:46:00,
2013-06-11 15:00:00,76.5,74.0,30.78,ENE,73,2.0,-999.0,92,-99.99,,,0.48,weatherlink.com 1.10,2013-06-11 20:00:00,
2013-06-11 15:15:00,76.8,74.0,30.77,East,86,0.0,-999.0,92,-99.99,,,0.48,weatherlink.com 1.10,2013-06-11 20:15:00,
2013-06-11 15:30:00,77.3,75.0,30.77,East,91,0.0,-999.0,92,-99.99,,,0.48,weatherlink.com 1.10,2013-06-11 20:30:00,
2013-06-11 15:45:00,77.4,75.0,30.77,East,100,4.0,-999.0,92,-99.99,,,0.48,weatherlink.com 1.10,2013-06-11 20:45:00,
2013-06-11 16:01:00,77.9,76.0,30.76,ENE,64,2.0,-999.0,92,-99.99,,,0.48,weatherlink.com 1.10,2013-06-11 21:01:00,
2013-06-11 16:31:00,78.0,75.0,30.76,ENE,73,3.0,-999.0,91,-99.99,,,0.48,weatherlink.com 1.10,2013-06-11 21:31:00,
2013-06-11 17:16:00,79.1,76.0,30.74,ENE,70,3.0,-999.0,89,-99.99,,,0.48,weatherlink.com 1.10,2013-06-11 22:16:00,
2013-06-11 17:31:00,79.9,77.0,30.74,East,84,2.0,-999.0,89,-99.99,,,0.48,weatherlink.com 1.10,2013-06-11 22:31:00,
2013-06-11 17:46:00,80.8,77.0,30.74,East,82,4.0,-999.0,89,-99.99,,,0.48,weatherlink.com 1.10,2013-06-11 22:46:00,
2013-06-11 18:01:00,81.4,77.0,30.74,East,80,1.0,-999.0,87,-99.99,,,0.48,weatherlink.com 1.10,2013-06-11 23:01:00,
2013-06-11 18:31:00,82.8,78.0,30.73,East,80,0.0,-999.0,85,-99.99,,,0.48,weatherlink.com 1.10,2013-06-11 23:31:00,
2013-06-11 18:46:00,82.9,78.0,30.73,East,80,0.0,-999.0,85,-99.99,,,0.48,weatherlink.com 1.10,2013-06-11 23:46:00,
2013-06-11 19:01:00,83.0,78.0,30.72,East,80,0.0,-999.0,85,-99.99,,,0.48,weatherlink.com 1.10,2013-06-12 00:01:00,
2013-06-11 19:16:00,83.2,79.0,30.73,East,80,0.0,-999.0,86,-99.99,,,0.48,weatherlink.com 1.10,2013-06-12 00:16:00,
2013-06-11 19:31:00,83.1,78.0,30.73,East,80,0.0,-999.0,85,-99.99,,,0.48,weatherlink.com 1.10,2013-06-12 00:31:00,
2013-06-11 20:01:00,82.3,78.0,30.72,East,80,0.0,-999.0,86,-99.99,,,0.48,weatherlink.com 1.10,2013-06-12 01:01:00,
2013-06-11 20:31:00,81.3,77.0,30.73,East,80,1.0,-999.0,87,-99.99,,,0.48,weatherlink.com 1.10,2013-06-12 01:31:00,
2013-06-11 20:46:00,80.8,77.0,30.73,East,80,0.0,-999.0,87,-99.99,,,0.48,weatherlink.com 1.10,2013-06-12 01:46:00,
2013-06-11 21:01:00,80.5,76.0,30.74,East,80,0.0,-999.0,87,-99.99,,,0.48,weatherlink.com 1.10,2013-06-12 02:01:00,
2013-06-11 21:16:00,80.1,76.0,30.74,East,80,1.0,-999.0,88,-99.99,,,0.48,weatherlink.com 1.10,2013-06-12 02:16:00,
2013-06-11 21:31:00,79.8,76.0,30.75,East,80,1.0,-999.0,89,-99.99,,,0.48,weatherlink.com 1.10,2013-06-12 02:31:00,
2013-06-11 21:46:00,79.6,76.0,30.75,East,80,2.0,-999.0,89,-99.99,,,0.48,weatherlink.com 1.10,2013-06-12 02:46:00,
2013-06-11 22:01:00,79.7,76.0,30.75,East,80,0.0,-999.0,89,-99.99,,,0.48,weatherlink.com 1.10,2013-06-12 03:01:00,
2013-06-11 22:16:00,79.6,76.0,30.76,East,80,0.0,-999.0,89,-99.99,,,0.48,weatherlink.com 1.10,2013-06-12 03:16:00,
2013-06-11 22:31:00,79.3,76.0,30.77,East,80,0.0,-999.0,89,-99.99,,,0.48,weatherlink.com 1.10,2013-06-12 03:31:00,
2013-06-11 22:46:00,78.9,76.0,30.76,East,80,0.0,-999.0,90,-99.99,,,0.48,weatherlink.com 1.10,2013-06-12 03:46:00,
2013-06-11 23:01:00,78.5,75.0,30.77,East,80,0.0,-999.0,90,-99.99,,,0.48,weatherlink.com 1.10,2013-06-12 04:01:00,
2013-06-11 23:16:00,78.1,75.0,30.77,East,80,0.0,-999.0,90,-99.99,,,0.48,weatherlink.com 1.10,2013-06-12 04:16:00,